When you browse on this site, cookies collect data to enhance your experience and personalize the content and advertising you see.
Visit our Privacy Policy to learn more. By continuing to use the site, you agree to this use of cookies and data.
  • In Hungary
  • List of Countries
  • For 7 days
  • Water Temperature
  • Satellite Maps
  • Weather Map
  • News
  • Weather Widgets
  • user-avatar
    Login

    Hourly Weather Luce

    Today, 26 March, Tuesday

    Time Temperature Precipitation Wind Pressure Humidity
    00:00 +1°C° 0 mm 4 mps 760 mmHg 86%
    01:00 +1°C° 0 mm 4 mps 760 mmHg 88%
    02:00 +2°C° 0 mm 3 mps 760 mmHg 90%
    03:00 +1°C° 0 mm 3 mps 760 mmHg 93%
    04:00 +1°C° 0 mm 3 mps 760 mmHg 93%
    05:00 0°C° 0 mm 3 mps 760 mmHg 94%
    06:00 +1°C° 0 mm 2 mps 761 mmHg 94%
    07:00 +2°C° 0 mm 3 mps 761 mmHg 87%
    08:00 +4°C° 0 mm 3 mps 761 mmHg 79%
    09:00 +7°C° 0 mm 3 mps 761 mmHg 72%
    10:00 +7°C° 0 mm 4 mps 761 mmHg 66%
    11:00 +8°C° 0 mm 4 mps 761 mmHg 59%
    12:00 +11°C° 0 mm 4 mps 761 mmHg 53%
    13:00 +11°C° 0 mm 4 mps 761 mmHg 53%
    14:00 +11°C° 0 mm 4 mps 760 mmHg 53%
    15:00 +12°C° 0 mm 4 mps 760 mmHg 53%
    16:00 +10°C° 0 mm 4 mps 760 mmHg 60%
    17:00 +9°C° 0 mm 3 mps 760 mmHg 67%
    18:00 +8°C° 0 mm 3 mps 760 mmHg 74%
    19:00 +7°C° 0 mm 3 mps 760 mmHg 78%
    20:00 +5°C° 0 mm 3 mps 760 mmHg 82%
    21:00 +4°C° 0 mm 3 mps 761 mmHg 87%
    22:00 +3°C° 0 mm 3 mps 761 mmHg 89%
    23:00 +4°C° 0 mm 2 mps 761 mmHg 91%

    Tomorrow, 27 March, Wednesday

    Time Temperature Precipitation Wind Pressure Humidity
    00:00 +4°C° 0 mm 2 mps 761 mmHg 93%
    01:00 +3°C° 0 mm 2 mps 761 mmHg 93%
    02:00 +3°C° 0 mm 2 mps 761 mmHg 93%
    03:00 +3°C° 0 mm 2 mps 761 mmHg 94%
    04:00 +2°C° 0 mm 2 mps 761 mmHg 94%
    05:00 +2°C° 0 mm 2 mps 761 mmHg 93%
    06:00 +2°C° 0 mm 2 mps 761 mmHg 93%
    07:00 +4°C° 0 mm 2 mps 761 mmHg 86%
    08:00 +6°C° 0 mm 2 mps 761 mmHg 78%
    09:00 +8°C° 0 mm 3 mps 762 mmHg 70%
    10:00 +10°C° 0 mm 3 mps 761 mmHg 66%
    11:00 +11°C° 0 mm 3 mps 761 mmHg 62%
    12:00 +12°C° 0 mm 4 mps 761 mmHg 57%
    13:00 +12°C° 0 mm 4 mps 761 mmHg 58%
    14:00 +12°C° 0 mm 4 mps 761 mmHg 59%
    15:00 +13°C° 0 mm 4 mps 761 mmHg 60%
    16:00 +11°C° 0 mm 4 mps 761 mmHg 66%
    17:00 +10°C° 0 mm 3 mps 761 mmHg 72%
    18:00 +9°C° 0 mm 3 mps 761 mmHg 79%
    19:00 +8°C° 0 mm 3 mps 761 mmHg 82%
    20:00 +7°C° 0 mm 3 mps 762 mmHg 86%
    21:00 +5°C° 0 mm 3 mps 762 mmHg 90%
    22:00 +5°C° 0 mm 3 mps 762 mmHg 91%
    23:00 +4°C° 0 mm 3 mps 762 mmHg 93%

    Day after tomorrow, 28 March, Thursday

    Time Temperature Precipitation Wind Pressure Humidity
    00:00 +4°C° 0 mm 3 mps 762 mmHg 94%
    01:00 +4°C° 0 mm 3 mps 762 mmHg 95%
    02:00 +4°C° 0 mm 3 mps 762 mmHg 95%
    03:00 +4°C° 0 mm 3 mps 762 mmHg 96%
    04:00 +3°C° 0 mm 3 mps 762 mmHg 96%
    05:00 +3°C° 0 mm 3 mps 762 mmHg 96%
    06:00 +3°C° 0 mm 3 mps 762 mmHg 96%
    07:00 +5°C° 0 mm 3 mps 763 mmHg 90%
    08:00 +8°C° 0 mm 3 mps 763 mmHg 83%
    09:00 +8°C° 0 mm 4 mps 763 mmHg 77%
    10:00 +11°C° 0 mm 4 mps 763 mmHg 72%
    11:00 +12°C° 0 mm 4 mps 763 mmHg 68%
    12:00 +13°C° 0 mm 4 mps 763 mmHg 63%
    13:00 +14°C° 0 mm 4 mps 762 mmHg 62%
    14:00 +14°C° 0 mm 4 mps 762 mmHg 61%
    15:00 +14°C° 0 mm 4 mps 762 mmHg 61%
    16:00 +13°C° 0 mm 4 mps 762 mmHg 65%
    17:00 +12°C° 0 mm 4 mps 761 mmHg 70%
    18:00 +11°C° 0 mm 3 mps 761 mmHg 75%
    19:00 +10°C° 0 mm 3 mps 761 mmHg 79%
    20:00 +9°C° 0 mm 3 mps 762 mmHg 82%
    21:00 +8°C° 0 mm 3 mps 762 mmHg 86%
    22:00 +8°C° 0 mm 3 mps 762 mmHg 88%
    23:00 +8°C° 0 mm 3 mps 762 mmHg 90%

    29 March, Friday

    Time Temperature Precipitation Wind Pressure Humidity
    00:00 +7°C° 0 mm 3 mps 761 mmHg 92%
    01:00 +7°C° 0 mm 3 mps 761 mmHg 93%
    02:00 +7°C° 0 mm 3 mps 761 mmHg 94%
    03:00 +5°C° 0 mm 3 mps 761 mmHg 94%
    04:00 +5°C° 0 mm 3 mps 761 mmHg 94%
    05:00 +5°C° 0 mm 3 mps 761 mmHg 95%
    06:00 +4°C° 0 mm 3 mps 760 mmHg 95%
    07:00 +7°C° 0 mm 3 mps 760 mmHg 88%
    08:00 +8°C° 0 mm 4 mps 760 mmHg 82%
    09:00 +11°C° 0 mm 4 mps 760 mmHg 75%
    10:00 +12°C° 0 mm 4 mps 760 mmHg 69%
    11:00 +13°C° 0 mm 4 mps 759 mmHg 63%
    12:00 +15°C° 0 mm 5 mps 759 mmHg 58%
    13:00 +15°C° 0 mm 4 mps 759 mmHg 56%
    14:00 +17°C° 0 mm 4 mps 758 mmHg 55%
    15:00 +17°C° 0 mm 4 mps 758 mmHg 53%
    16:00 +16°C° 0 mm 3 mps 758 mmHg 59%
    17:00 +13°C° 0 mm 3 mps 757 mmHg 65%
    18:00 +13°C° 0 mm 2 mps 757 mmHg 71%
    19:00 +12°C° 0 mm 2 mps 757 mmHg 74%
    20:00 +10°C° 0 mm 2 mps 758 mmHg 77%
    21:00 +9°C° 0 mm 2 mps 758 mmHg 80%
    22:00 +9°C° 0 mm 1 mps 758 mmHg 82%
    23:00 +9°C° 0 mm 1 mps 758 mmHg 85%

    30 March, Saturday

    Time Temperature Precipitation Wind Pressure Humidity
    00:00 +9°C° 0 mm 1 mps 757 mmHg 87%
    01:00 +8°C° 0 mm 1 mps 757 mmHg 87%
    02:00 +8°C° 0 mm 1 mps 757 mmHg 88%
    03:00 +8°C° 0 mm 1 mps 757 mmHg 89%
    04:00 +6°C° 0 mm 0 mps 757 mmHg 89%
    05:00 +6°C° 0 mm 0 mps 757 mmHg 89%
    06:00 +6°C° 0 mm 0 mps 757 mmHg 89%
    07:00 +8°C° 0 mm 0 mps 757 mmHg 83%
    08:00 +11°C° 0 mm 0 mps 757 mmHg 77%
    09:00 +13°C° 0 mm 0 mps 757 mmHg 70%
    10:00 +15°C° 0 mm 1 mps 757 mmHg 65%
    11:00 +16°C° 0 mm 1 mps 756 mmHg 60%
    12:00 +19°C° 0 mm 1 mps 756 mmHg 55%
    13:00 +18°C° 0 mm 2 mps 756 mmHg 54%
    14:00 +18°C° 0 mm 2 mps 755 mmHg 52%
    15:00 +18°C° 0 mm 3 mps 755 mmHg 51%
    16:00 +17°C° 0 mm 2 mps 755 mmHg 57%
    17:00 +16°C° 0 mm 2 mps 754 mmHg 63%
    18:00 +14°C° 0 mm 2 mps 754 mmHg 70%
    19:00 +13°C° 0 mm 2 mps 755 mmHg 72%
    20:00 +11°C° 0 mm 3 mps 755 mmHg 74%
    21:00 +10°C° 0 mm 3 mps 755 mmHg 77%
    22:00 +8°C° 0 mm 4 mps 755 mmHg 81%
    23:00 +8°C° 0 mm 4 mps 755 mmHg 86%

    31 March, Sunday

    Time Temperature Precipitation Wind Pressure Humidity
    00:00 +8°C° 0 mm 5 mps 755 mmHg 90%
    01:00 +8°C° 0.1 mm 5 mps 755 mmHg 89%
    02:00 +7°C° 0.1 mm 5 mps 755 mmHg 87%
    03:00 +7°C° 0.1 mm 6 mps 755 mmHg 86%
    04:00 +5°C° 0.1 mm 6 mps 755 mmHg 85%
    05:00 +5°C° 0.1 mm 6 mps 756 mmHg 85%
    06:00 +4°C° 0.1 mm 7 mps 756 mmHg 84%
    07:00 +5°C° 0 mm 7 mps 756 mmHg 80%
    08:00 +5°C° 0 mm 7 mps 756 mmHg 75%
    09:00 +5°C° 0 mm 7 mps 757 mmHg 71%
    10:00 +6°C° 0 mm 7 mps 756 mmHg 68%
    11:00 +8°C° 0 mm 7 mps 756 mmHg 65%
    12:00 +9°C° 0 mm 7 mps 756 mmHg 62%
    13:00 +10°C° 0 mm 7 mps 756 mmHg 60%
    14:00 +10°C° 0 mm 7 mps 756 mmHg 58%
    15:00 +11°C° 0 mm 7 mps 755 mmHg 57%
    16:00 +10°C° 0 mm 6 mps 755 mmHg 59%
    17:00 +8°C° 0 mm 6 mps 755 mmHg 62%
    18:00 +7°C° 0 mm 5 mps 755 mmHg 64%
    19:00 +6°C° 0 mm 5 mps 756 mmHg 62%
    20:00 +6°C° 0 mm 5 mps 756 mmHg 60%
    21:00 +5°C° 0 mm 5 mps 756 mmHg 58%
    22:00 +3°C° 0 mm 5 mps 756 mmHg 58%
    23:00 +2°C° 0 mm 5 mps 756 mmHg 57%
    Show more